This demonstration page uses our WeatherBlox Daily Observations layout. Learn more.

Left ArrowRight Arrow

39.08367, -84.50855

Hourly Observations for March 23, 2016

Temp ( °F °C ) Dew Point ( °F °C ) Humidity (%) Winds ( mph kmh ) Pressure ( in mb ) Visibility ( mi km ) Precip ( " mm )
12:53 am 00:53 Clear 59 15 30 -1.1 33 33 SSW 14 22 29.9 1012 10 16.0934 N/A
1:53 am 01:53 Clear 57 13.9 31 -0.6 37 37 SSW 15 24 29.91 1013 10 16.0934 N/A
2:53 am 02:53 Clear 57 13.9 31 -0.6 37 37 SSW 14 22 29.91 1013 10 16.0934 N/A
3:53 am 03:53 Clear 53 11.7 32 undefined 45 45 SSW 12 19 29.92 1013 10 16.0934 N/A
4:53 am 04:53 Clear 53 11.7 33 0.6 47 47 SSW 12 19 29.92 1013 10 16.0934 N/A
5:53 am 05:53 Clear 54 12.2 33 0.6 45 45 SSW 15 24 29.93 1014 10 16.0934 N/A
6:53 am 06:53 Mostly Clear 54 12.2 33 0.6 45 45 SSW 16 26 29.93 1014 10 16.0934 N/A
7:53 am 07:53 Sunny 53 11.7 35 1.7 51 51 SSW 14 22 29.95 1014 10 16.0934 N/A
8:53 am 08:53 Sunny 56 13.3 37 2.8 49 49 S 14 22 29.96 1015 10 16.0934 N/A
9:53 am 09:53 Partly Cloudy 58 14.4 39 3.9 50 50 SSW 18 30 29.97 1015 10 16.0934 N/A
10:53 am 10:53 Mostly Cloudy 59 15 43 6.1 56 56 SSW 23 37 29.98 1015 10 16.0934 N/A
11:53 am 11:53 Cloudy 59 15 44 6.7 58 58 SW 25 41 30 1016 10 16.0934 N/A
12:53 pm 12:53 Cloudy 60 15.6 46 7.8 60 60 SSW 18 30 29.98 1015 10 16.0934 N/A
1:53 pm 13:53 Cloudy 60 15.6 46 7.8 60 60 SSW 14 22 29.98 1015 10 16.0934 N/A
2:53 pm 14:53 Cloudy 60 15.6 46 7.8 60 60 SSW 16 26 29.98 1015 10 16.0934 N/A
3:53 pm 15:53 Cloudy 61 16.1 46 7.8 58 58 SSW 14 22 29.95 1014 10 16.0934 N/A
4:53 pm 16:53 Cloudy 60 15.6 47 8.3 62 62 SSW 15 24 29.94 1014 10 16.0934 N/A
5:53 pm 17:53 Cloudy 61 16.1 48 8.9 63 63 S 20 31 29.93 1014 10 16.0934 N/A
6:53 pm 18:53 Mostly Cloudy 61 16.1 47 8.3 60 60 SSW 13 20 29.93 1013 10 16.0934 N/A
7:53 pm 19:53 Partly Cloudy 58 14.4 46 7.8 65 65 S 8 13 29.92 1013 10 16.0934 N/A
8:53 pm 20:53 Clear 54 12.2 45 7.2 72 72 N N/A 29.92 1013 10 16.0934 N/A
9:53 pm 21:53 Clear 48 8.9 45 7.2 89 89 N N/A 29.93 1014 10 16.0934 N/A
10:53 pm 22:53 Cloudy 48 8.9 45 7.2 89 89 N N/A 29.93 1013 10 16.0934 N/A
11:53 pm 23:53 Cloudy 51 10.6 46 7.8 83 83 SSW 3 6 29.92 1013 10 16.0934 N/A

Powered by AerisWeather